Location: Albany
(35.0170°S, 117.8920°E)
Time: 15:44:30
(UTC+08:00)

Transit 2A - Pass Details

Date: 22 January 2021
Orbit: 601 x 958 km, 66.7° (Epoch: 02 March)

Event Time Altitude Azimuth Distance (km) Brightness Sun altitude
Rises 17:24:52 0° 289° (WNW) 2,993 10.1 22.1°
Reaches altitude 10° 17:27:54 10° 267° (W) 2,149 10.5 21.5°
Maximum altitude 17:30:59 17° 228° (SW) 1,818 9.2 20.9°
Drops below altitude 10° 17:34:16 10° 189° (S) 2,307 8.8 20.2°
Sets 17:37:43 0° 168° (SSE) 3,323 9.3 19.5°
